| time (UTC) | temp F | wind direction | speed MPH | gust MPH | rain 1hr in | rain 24hr in | rain mn in | humidity % | barometer mb |
| 20260510093004 | 51 | 287 | 4.0 | 5.0 | 0.00 | 0.00 | 0.00 | 36 | 1012.9 |
| 20260510091556 | 51 | 311 | 2.0 | 4.0 | 0.00 | 0.00 | 0.00 | 36 | 1012.9 |
| 20260510090058 | 50 | 313 | 4.0 | 6.0 | 0.00 | 0.00 | 0.00 | 35 | 1012.8 |
| 20260510084547 | 49 | 269 | 2.0 | 4.0 | 0.00 | 0.00 | 0.00 | 37 | 1012.8 |
| 20260510083045 | 50 | 267 | 1.0 | 3.0 | 0.00 | 0.00 | 0.00 | 36 | 1012.7 |
| 20260510081550 | 50 | 267 | 1.0 | 6.0 | 0.00 | 0.00 | 0.00 | 35 | 1012.5 |
| 20260510080136 | 51 | 267 | 2.0 | 4.0 | 0.00 | 0.00 | 0.00 | 34 | 1012.5 |
| 20260510074536 | 51 | 266 | 0.0 | 4.0 | 0.00 | 0.00 | 0.00 | 34 | 1012.4 |
| 20260510073026 | 51 | 265 | 2.0 | 4.0 | 0.00 | 0.00 | 0.00 | 33 | 1012.5 |
| 20260510071518 | 51 | 267 | 3.0 | 7.0 | 0.00 | 0.00 | 0.00 | 32 | 1012.3 |
| 20260510070007 | 51 | 252 | 2.0 | 4.0 | 0.00 | 0.00 | 0.00 | 34 | 1012.0 |
| 20260510064558 | 50 | 252 | 3.0 | 7.0 | 0.00 | 0.00 | 0.00 | 33 | 1011.9 |
| 20260510063049 | 50 | 253 | 3.0 | 5.0 | 0.00 | 0.00 | 0.00 | 32 | 1011.7 |
| 20260510061539 | 51 | 254 | 3.0 | 7.0 | 0.00 | 0.00 | 0.00 | 32 | 1011.6 |
| 20260510060044 | 51 | 254 | 3.0 | 5.0 | 0.00 | 0.00 | 0.00 | 33 | 1011.5 |
| 20260510054519 | 52 | 254 | 3.0 | 4.0 | 0.00 | 0.00 | 0.00 | 33 | 1011.4 |
| 20260510053009 | 52 | 253 | 2.0 | 4.0 | 0.00 | 0.00 | 0.00 | 32 | 1011.3 |
| 20260510051701 | 53 | 252 | 2.0 | 4.0 | 0.00 | 0.00 | 0.00 | 31 | 1011.1 |
| 20260510050047 | 53 | 250 | 2.0 | 5.0 | 0.00 | 0.00 | 0.00 | 30 | 1011.0 |
| 20260510044537 | 54 | 242 | 4.0 | 5.0 | 0.00 | 0.00 | 0.00 | 31 | 1010.8 |
| 20260510043040 | 55 | 241 | 2.0 | 3.0 | 0.00 | 0.00 | 0.00 | 29 | 1010.7 |
| 20260510041529 | 56 | 241 | 0.0 | 4.0 | 0.00 | 0.00 | 0.00 | 27 | 1010.6 |
| 20260510040017 | 56 | 240 | 3.0 | 5.0 | 0.00 | 0.00 | 0.00 | 28 | 1010.4 |
| 20260510034507 | 57 | 238 | 3.0 | 4.0 | 0.00 | 0.00 | 0.00 | 28 | 1010.1 |
| 20260510033100 | 58 | 238 | 3.0 | 5.0 | 0.00 | 0.00 | 0.00 | 28 | 1009.9 |
| 20260510031622 | 59 | 235 | 2.0 | 5.0 | 0.00 | 0.00 | 0.00 | 25 | 1009.5 |
| 20260510030017 | 60 | 241 | 3.0 | 5.0 | 0.00 | 0.00 | 0.00 | 24 | 1009.4 |
| 20260510024517 | 62 | 243 | 3.0 | 4.0 | 0.00 | 0.00 | 0.00 | 22 | 1009.3 |
| 20260510023025 | 64 | 244 | 3.0 | 5.0 | 0.00 | 0.00 | 0.00 | 22 | 1009.1 |
| 20260510021500 | 65 | 245 | 4.0 | 7.0 | 0.00 | 0.00 | 0.00 | 20 | 1009.1 |
| 20260510020002 | 68 | 25 | 2.0 | 5.0 | 0.00 | 0.00 | 0.00 | 19 | 1009.0 |
| 20260510014501 | 69 | 360 | 3.0 | 5.0 | 0.00 | 0.00 | 0.00 | 17 | 1008.9 |
| 20260510013054 | 71 | 351 | 3.0 | 8.0 | 0.00 | 0.00 | 0.00 | 16 | 1008.8 |
| 20260510011600 | 71 | 350 | 4.0 | 10.0 | 0.00 | 0.00 | 0.00 | 16 | 1008.9 |
| 20260510010058 | 72 | 360 | 4.0 | 9.0 | 0.00 | 0.00 | 0.00 | 16 | 1008.9 |
| 20260510004544 | 72 | 360 | 3.0 | 11.0 | 0.00 | 0.00 | 0.00 | 17 | 1008.9 |
| 20260510003035 | 72 | 40 | 3.0 | 9.0 | 0.00 | 0.00 | 0.00 | 17 | 1009.0 |
| 20260510001527 | 72 | 13 | 6.0 | 13.0 | 0.00 | 0.00 | 0.00 | 18 | 1009.0 |
| 20260510000027 | 72 | 23 | 8.0 | 15.0 | 0.00 | 0.00 | 0.00 | 16 | 1009.1 |
| 20260509234519 | 73 | 346 | 8.0 | 12.0 | 0.00 | 0.00 | 0.00 | 18 | 1009.1 |
| 20260509233010 | 72 | 343 | 6.0 | 16.0 | 0.00 | 0.00 | 0.00 | 16 | 1009.0 |
| 20260509231605 | 72 | 345 | 9.0 | 17.0 | 0.00 | 0.00 | 0.00 | 16 | 1009.4 |
| 20260509230058 | 72 | 315 | 11.0 | 16.0 | 0.00 | 0.00 | 0.00 | 16 | 1009.6 |
| 20260509224549 | 73 | 355 | 9.0 | 17.0 | 0.00 | 0.00 | 0.00 | 17 | 1009.5 |
| 20260509223042 | 73 | 256 | 10.0 | 20.0 | 0.00 | 0.00 | 0.00 | 16 | 1009.6 |
| 20260509221541 | 73 | 346 | 11.0 | 19.0 | 0.00 | 0.00 | 0.00 | 17 | 1009.7 |
| 20260509220036 | 72 | 20 | 10.0 | 20.0 | 0.00 | 0.00 | 0.00 | 18 | 1009.7 |
| 20260509214625 | 73 | 355 | 12.0 | 20.0 | 0.00 | 0.00 | 0.00 | 18 | 1009.9 |
| 20260509213101 | 73 | 5 | 11.0 | 18.0 | 0.00 | 0.00 | 0.00 | 19 | 1009.8 |
| 20260509211605 | 73 | 360 | 8.0 | 19.0 | 0.00 | 0.00 | 0.00 | 18 | 1009.9 |
| 20260509210036 | 72 | 17 | 8.0 | 18.0 | 0.00 | 0.00 | 0.00 | 23 | 1009.8 |
| 20260509204527 | 70 | 347 | 9.0 | 17.0 | 0.00 | 0.00 | 0.00 | 22 | 1009.8 |
| 20260509203121 | 70 | 344 | 10.0 | 17.0 | 0.00 | 0.00 | 0.00 | 21 | 1010.0 |
| 20260509201536 | 72 | 340 | 9.0 | 17.0 | 0.00 | 0.00 | 0.00 | 20 | 1009.9 |
| 20260509200128 | 71 | 10 | 10.0 | 22.0 | 0.00 | 0.00 | 0.00 | 23 | 1010.0 |
| 20260509194526 | 71 | 294 | 10.0 | 18.0 | 0.00 | 0.00 | 0.00 | 21 | 1010.1 |
| 20260509193025 | 71 | 347 | 7.0 | 16.0 | 0.00 | 0.00 | 0.00 | 27 | 1010.2 |
| 20260509191518 | 71 | 360 | 5.0 | 15.0 | 0.00 | 0.00 | 0.00 | 26 | 1010.2 |
| 20260509190021 | 71 | 5 | 9.0 | 15.0 | 0.00 | 0.00 | 0.00 | 27 | 1010.3 |
| 20260509184606 | 70 | 331 | 10.0 | 15.0 | 0.00 | 0.00 | 0.00 | 29 | 1010.4 |
| 20260509183014 | 69 | 350 | 11.0 | 20.0 | 0.00 | 0.00 | 0.00 | 27 | 1010.4 |
| 20260509181501 | 69 | 355 | 3.0 | 17.0 | 0.00 | 0.00 | 0.00 | 28 | 1010.5 |
| 20260509180052 | 69 | 325 | 9.0 | 15.0 | 0.00 | 0.00 | 0.00 | 27 | 1010.4 |
| 20260509174547 | 69 | 360 | 6.0 | 16.0 | 0.00 | 0.00 | 0.00 | 30 | 1010.5 |
| 20260509173041 | 69 | 342 | 7.0 | 14.0 | 0.00 | 0.00 | 0.00 | 28 | 1010.6 |
| 20260509171528 | 68 | 314 | 10.0 | 17.0 | 0.00 | 0.00 | 0.00 | 28 | 1010.6 |
| 20260509170018 | 68 | 355 | 5.0 | 15.0 | 0.00 | 0.00 | 0.00 | 31 | 1010.6 |
| 20260509164506 | 66 | 28 | 7.0 | 13.0 | 0.00 | 0.00 | 0.00 | 30 | 1010.7 |
| 20260509163100 | 65 | 350 | 5.0 | 14.0 | 0.00 | 0.00 | 0.00 | 30 | 1010.6 |
| 20260509161543 | 64 | 9 | 8.0 | 17.0 | 0.00 | 0.00 | 0.00 | 30 | 1010.6 |
| 20260509160032 | 63 | 333 | 4.0 | 14.0 | 0.00 | 0.00 | 0.00 | 34 | 1010.7 |
| 20260509154520 | 62 | 5 | 7.0 | 12.0 | 0.00 | 0.00 | 0.00 | 34 | 1010.9 |
| 20260509153017 | 61 | 338 | 8.0 | 16.0 | 0.00 | 0.00 | 0.00 | 33 | 1010.8 |
| 20260509151559 | 61 | 315 | 9.0 | 15.0 | 0.00 | 0.00 | 0.00 | 33 | 1010.7 |
| 20260509150050 | 60 | 317 | 6.0 | 15.0 | 0.00 | 0.00 | 0.00 | 33 | 1010.6 |
| 20260509144549 | 59 | 334 | 6.0 | 11.0 | 0.00 | 0.00 | 0.00 | 35 | 1010.5 |
| 20260509143040 | 58 | 333 | 4.0 | 10.0 | 0.00 | 0.00 | 0.00 | 36 | 1010.5 |
| 20260509141532 | 57 | 309 | 5.0 | 9.0 | 0.00 | 0.00 | 0.00 | 36 | 1010.5 |
| 20260509140023 | 56 | 331 | 4.0 | 10.0 | 0.00 | 0.00 | 0.00 | 42 | 1010.3 |
| 20260509134512 | 55 | 308 | 3.0 | 9.0 | 0.00 | 0.00 | 0.00 | 43 | 1010.2 |
| 20260509133002 | 55 | 313 | 4.0 | 9.0 | 0.00 | 0.00 | 0.00 | 41 | 1010.0 |
| 20260509131554 | 54 | 281 | 5.0 | 9.0 | 0.00 | 0.00 | 0.00 | 40 | 1009.9 |
| 20260509130044 | 54 | 259 | 4.0 | 9.0 | 0.00 | 0.00 | 0.00 | 40 | 1009.7 |
| 20260509124531 | 53 | 264 | 3.0 | 10.0 | 0.00 | 0.00 | 0.00 | 40 | 1009.6 |
| 20260509123022 | 53 | 286 | 5.0 | 11.0 | 0.00 | 0.00 | 0.00 | 40 | 1009.3 |
| 20260509121513 | 53 | 312 | 6.0 | 11.0 | 0.00 | 0.00 | 0.00 | 40 | 1009.3 |
| 20260509120012 | 54 | 280 | 4.0 | 9.0 | 0.00 | 0.00 | 0.00 | 39 | 1009.0 |
| 20260509114559 | 54 | 293 | 4.0 | 8.0 | 0.00 | 0.00 | 0.00 | 38 | 1009.0 |
| 20260509113046 | 54 | 299 | 4.0 | 8.0 | 0.00 | 0.00 | 0.00 | 37 | 1008.9 |
| 20260509111536 | 55 | 322 | 6.0 | 13.0 | 0.00 | 0.00 | 0.00 | 35 | 1008.8 |
| 20260509110026 | 54 | 318 | 5.0 | 10.0 | 0.00 | 0.00 | 0.00 | 36 | 1008.8 |
| 20260509104515 | 55 | 307 | 4.0 | 9.0 | 0.00 | 0.00 | 0.00 | 35 | 1008.8 |
| 20260509103002 | 56 | 304 | 4.0 | 9.0 | 0.00 | 0.00 | 0.00 | 35 | 1008.9 |
| 20260509101556 | 57 | 317 | 5.0 | 11.0 | 0.00 | 0.00 | 0.00 | 34 | 1008.9 |
| 20260509100053 | 57 | 310 | 9.0 | 13.0 | 0.00 | 0.00 | 0.00 | 32 | 1008.7 |
| 20260509094537 | 58 | 320 | 7.0 | 13.0 | 0.00 | 0.00 | 0.00 | 34 | 1008.6 |